Location: Newark
(40.9833°N, 0.0333°W)
Time: 02:05:25
(UTC+00:00)

Altair - Pass Details

Date: 30 October 2020
Orbit: 1502 x 1682 km, 47.2° (Epoch: 02 December)

Event Time Altitude Azimuth Distance (km) Brightness Sun altitude
Rises 09:11:14 0° 293° (WNW) 4,722 9.6 24.7°
Reaches altitude 10° 09:14:17 10° 295° (WNW) 3,760 9.1 25.1°
Maximum altitude 09:23:54 77° 21° (NNE) 1,651 8.0 26.2°
Drops below altitude 10° 09:33:53 10° 108° (ESE) 3,894 10.6 27.3°
Sets 09:37:04 0° 110° (ESE) 4,897 10.9 27.7°
